,,Stat6,,Stat2,,Stat8,,Stat9,,Stat10,,Wind1,,Wind1,
time,status,PA1M_AVG,status,PR1M_SUM,status,RH1M_AVG,status,SR1M_AVG,status,TA1M_AVG,status,W1dAve1m,status,W1sAve1m,
2005-08-08, 00:00:00,VALID,918.907,VALID,0,VALID,92.3808,VALID,-0.0509425,VALID,19.6694,VALID,7,VALID,1.01381,
2005-08-08, 00:01:00,VALID,918.904,VALID,0,VALID,92.1405,VALID,-0.0509425,VALID,19.6958,VALID,8,VALID,0.759859,
2005-08-08, 00:02:00,VALID,918.894,VALID,0,VALID,91.9396,VALID,-0.0679233,VALID,19.7181,VALID,9,VALID,0.621652,
2005-08-08, 00:03:01,VALID,918.903,VALID,0,VALID,91.876,VALID,-0.0849042,VALID,19.7348,VALID,12,VALID,0.574855,
2005-08-08, 00:04:00,VALID,918.887,VALID,0,VALID,91.8683,VALID,-0.0509425,VALID,19.7539,VALID,24,VALID,0.626042,
2005-08-08, 00:05:00,VALID,918.89,VALID,0,VALID,91.614,VALID,-0.0849042,VALID,19.7598,VALID,29,VALID,0.806108,
2005-08-08, 00:06:00,VALID,918.911,VALID,0,VALID,91.6496,VALID,-0.0509425,VALID,19.7698,VALID,26,VALID,0.651414,
2005-08-08, 00:07:00,VALID,918.918,VALID,0,VALID,91.7552,VALID,-0.0169808,VALID,19.7765,VALID,26,VALID,0.430035,
2005-08-08, 00:08:00,VALID,918.929,VALID,0,VALID,91.9764,VALID,-0.0679233,VALID,19.7504,VALID,26,VALID,0.410342,
2005-08-08, 00:09:00,VALID,918.95,VALID,0,VALID,92.0667,VALID,-0.0849042,VALID,19.734,VALID,26,VALID,0.210175,
2005-08-08, 00:10:01,VALID,918.953,VALID,0,VALID,92.1138,VALID,-0.0509425,VALID,19.7472,VALID,26,VALID,0.225497,
2005-08-08, 00:11:01,VALID,918.949,VALID,0,VALID,92.0871,VALID,0,VALID,19.7663,VALID,26,VALID,0.300409,
2005-08-08, 00:12:00,VALID,918.928,VALID,0,VALID,91.8772,VALID,-0.0169808,VALID,19.7926,VALID,26,VALID,0.510016,
2005-08-08, 00:13:00,VALID,918.916,VALID,0,VALID,92.0158,VALID,-0.0169808,VALID,19.7892,VALID,27,VALID,0.532774,
2005-08-08, 00:14:00,VALID,918.905,VALID,0,VALID,92.302,VALID,-0.0509425,VALID,19.7797,VALID,27,VALID,0.525746,
2005-08-08, 00:15:01,VALID,918.895,VALID,0,VALID,92.2346,VALID,-0.0169808,VALID,19.7176,VALID,27,VALID,0.649966,
2005-08-08, 00:16:00,VALID,918.89,VALID,0,VALID,92.3427,VALID,0,VALID,19.6955,VALID,26,VALID,0.644618,
2005-08-08, 00:17:01,VALID,918.872,VALID,0,VALID,92.3694,VALID,-0.0339617,VALID,19.6694,VALID,17,VALID,0.835938,
2005-08-08, 00:18:01,VALID,918.862,VALID,0,VALID,92.4711,VALID,-0.0339617,VALID,19.6734,VALID,2,VALID,0.67748,
2005-08-08, 00:19:01,VALID,918.836,VALID,0,VALID,92.4418,VALID,-0.0509425,VALID,19.6923,VALID,1,VALID,0.719658,
2005-08-08, 00:20:00,VALID,918.792,VALID,0,VALID,92.3986,VALID,-0.0509425,VALID,19.7283,VALID,2,VALID,0.805398,
2005-08-08, 00:21:01,VALID,918.774,VALID,0,VALID,92.1621,VALID,-0.0339617,VALID,19.7084,VALID,2,VALID,0.928445,
2005-08-08, 00:22:01,VALID,918.754,VALID,0,VALID,92.054,VALID,-0.0509425,VALID,19.7377,VALID,3,VALID,0.903525,
2005-08-08, 00:23:00,VALID,918.736,VALID,0,VALID,92.171,VALID,-0.0509425,VALID,19.7504,VALID,3,VALID,0.774414,
2005-08-08, 00:24:01,VALID,918.741,VALID,0,VALID,92.0998,VALID,-0.0169808,VALID,19.7601,VALID,2,VALID,0.635653,
2005-08-08, 00:25:00,VALID,918.741,VALID,0,VALID,91.923,VALID,-0.0339617,VALID,19.7636,VALID,2,VALID,0.912157,
2005-08-08, 00:26:00,VALID,918.733,VALID,0,VALID,91.9205,VALID,-0.0339617,VALID,19.7668,VALID,358,VALID,0.929869,
2005-08-08, 00:27:00,VALID,918.726,VALID,0,VALID,91.998,VALID,-0.0679233,VALID,19.7735,VALID,348,VALID,0.558894,
2005-08-08, 00:28:01,VALID,918.731,VALID,0,VALID,91.9268,VALID,-0.0679233,VALID,19.7934,VALID,312,VALID,0.4375,
2005-08-08, 00:29:01,VALID,918.764,VALID,0,VALID,91.8849,VALID,-0.0679233,VALID,19.8349,VALID,222,VALID,0.84446,
2005-08-08, 00:30:00,VALID,918.773,VALID,0,VALID,92.0934,VALID,-0.0849042,VALID,19.8381,VALID,200,VALID,0.99638,
2005-08-08, 00:31:01,VALID,918.748,VALID,0,VALID,92.0565,VALID,-0.0339617,VALID,19.8118,VALID,198,VALID,1.05413,
2005-08-08, 00:32:00,VALID,918.715,VALID,0,VALID,91.9345,VALID,-0.0679233,VALID,19.7832,VALID,209,VALID,0.420015,
2005-08-08, 00:33:00,VALID,918.671,VALID,0,VALID,92.3427,VALID,-0.101885,VALID,19.7924,VALID,319,VALID,0.820139,
2005-08-08, 00:34:00,VALID,918.656,VALID,0,VALID,92.4635,VALID,-0.0849042,VALID,19.7671,VALID,350,VALID,0.965021,
2005-08-08, 00:35:01,VALID,918.697,VALID,0,VALID,92.761,VALID,-0.0169808,VALID,19.7052,VALID,338,VALID,0.875206,
2005-08-08, 00:36:00,VALID,918.722,VALID,0,VALID,93.0624,VALID,-0.0509425,VALID,19.6799,VALID,320,VALID,0.445313,
2005-08-08, 00:37:00,VALID,918.732,VALID,0,VALID,93.009,VALID,-0.0679233,VALID,19.6761,VALID,320,VALID,0.0136719,
2005-08-08, 00:38:01,VALID,918.723,VALID,0,VALID,92.8767,VALID,-0.0679233,VALID,19.6861,VALID,317,VALID,0.156436,
2005-08-08, 00:39:01,VALID,918.733,VALID,0,VALID,92.5576,VALID,-0.0509425,VALID,19.699,VALID,296,VALID,0.0907012,
2005-08-08, 00:40:00,VALID,918.72,VALID,0,VALID,92.4736,VALID,-0.0509425,VALID,19.7281,VALID,296,VALID,0.0269717,
2005-08-08, 00:41:01,VALID,918.697,VALID,0,VALID,92.7483,VALID,-0.0679233,VALID,19.78,VALID,311,VALID,0.394717,
2005-08-08, 00:42:01,VALID,918.682,VALID,0,VALID,92.9937,VALID,-0.0679233,VALID,19.7897,VALID,341,VALID,0.524132,
2005-08-08, 00:43:01,VALID,918.652,VALID,0,VALID,92.8246,VALID,-0.0509425,VALID,19.7504,VALID,340,VALID,0.717507,
2005-08-08, 00:44:01,VALID,918.622,VALID,0,VALID,92.9428,VALID,-0.0509425,VALID,19.7348,VALID,337,VALID,0.554688,
2005-08-08, 00:45:01,VALID,918.602,VALID,0,VALID,93.0306,VALID,0,VALID,19.7084,VALID,339,VALID,0.68936,
2005-08-08, 00:46:01,VALID,918.612,VALID,0,VALID,93.1488,VALID,-0.0169808,VALID,19.7318,VALID,338,VALID,0.337806,
2005-08-08, 00:47:00,VALID,918.609,VALID,0,VALID,92.7623,VALID,-0.0509425,VALID,19.7338,VALID,309,VALID,0.392721,
2005-08-08, 00:48:01,VALID,918.612,VALID,0,VALID,92.4863,VALID,-0.0169808,VALID,19.7795,VALID,288,VALID,0.310156,
2005-08-08, 00:49:01,VALID,918.614,VALID,0,VALID,92.0375,VALID,-0.0169808,VALID,19.8341,VALID,328,VALID,0.49295,
2005-08-08, 00:50:01,VALID,918.613,VALID,0,VALID,91.6484,VALID,-0.0509425,VALID,19.8736,VALID,13,VALID,0.163132,
2005-08-08, 00:51:01,VALID,918.589,VALID,0,VALID,91.8187,VALID,-0.0169808,VALID,19.9216,VALID,18,VALID,0.0868676,
2005-08-08, 00:52:01,VALID,918.583,VALID,0,VALID,91.7831,VALID,-0.0509425,VALID,19.9449,VALID,60,VALID,0.180618,
2005-08-08, 00:53:01,VALID,918.558,VALID,0,VALID,91.9268,VALID,-0.0339617,VALID,19.9635,VALID,60,VALID,0.166867,
2005-08-08, 00:54:01,VALID,918.52,VALID,0,VALID,91.7628,VALID,-0.0509425,VALID,19.9735,VALID,60,VALID,0.216332,
2005-08-08, 00:55:01,VALID,918.502,VALID,0,VALID,91.7742,VALID,-0.0509425,VALID,19.9837,VALID,60,VALID,0.26617,
2005-08-08, 00:56:01,VALID,918.49,VALID,0,VALID,91.7437,VALID,-0.0679233,VALID,19.9765,VALID,51,VALID,0.378472,
2005-08-08, 00:57:01,VALID,918.492,VALID,0,VALID,91.9001,VALID,-0.0849042,VALID,19.9673,VALID,33,VALID,0.226389,
2005-08-08, 00:58:01,VALID,918.488,VALID,0,VALID,92.1163,VALID,-0.0169808,VALID,19.9703,VALID,33,VALID,0,
2005-08-08, 00:59:01,VALID,918.477,VALID,0,VALID,91.7043,VALID,-0.0849042,VALID,19.9668,VALID,33,VALID,0.15253,
2005-08-08, 01:00:01,VALID,918.463,VALID,0,VALID,91.6496,VALID,-0.0679233,VALID,19.9665,VALID,33,VALID,0.236914,
2005-08-08, 01:01:01,VALID,918.454,VALID,0,VALID,91.7755,VALID,-0.0679233,VALID,19.9896,VALID,33,VALID,0.0923611,
2005-08-08, 01:02:01,VALID,918.446,VALID,0,VALID,92.2536,VALID,-0.0849042,VALID,19.9889,VALID,33,VALID,0.0352471,
2005-08-08, 01:03:01,VALID,918.432,VALID,0,VALID,91.9942,VALID,-0.101885,VALID,19.9737,VALID,25,VALID,0.402716,
2005-08-08, 01:04:01,VALID,918.421,VALID,0,VALID,91.8823,VALID,-0.0509425,VALID,19.9444,VALID,18,VALID,0.284157,
2005-08-08, 01:05:01,VALID,918.412,VALID,0,VALID,91.8391,VALID,-0.101885,VALID,19.9317,VALID,18,VALID,0.252663,
2005-08-08, 01:06:01,VALID,918.405,VALID,0,VALID,91.7234,VALID,-0.0679233,VALID,19.932,VALID,16,VALID,0.264101,
2005-08-08, 01:07:01,VALID,918.406,VALID,0,VALID,91.7297,VALID,-0.118866,VALID,19.9255,VALID,13,VALID,0.250586,
2005-08-08, 01:08:01,VALID,918.414,VALID,0,VALID,91.6687,VALID,-0.101885,VALID,19.9124,VALID,13,VALID,0.240659,
2005-08-08, 01:09:01,VALID,918.413,VALID,0,VALID,91.6878,VALID,-0.101885,VALID,19.9121,VALID,12,VALID,0.287642,
2005-08-08, 01:10:01,VALID,918.409,VALID,0,VALID,91.8391,VALID,-0.0849042,VALID,19.9285,VALID,12,VALID,0.0558308,
2005-08-08, 01:11:01,VALID,918.406,VALID,0,VALID,91.8925,VALID,-0.101885,VALID,19.9253,VALID,12,VALID,0.16806,
2005-08-08, 01:12:01,VALID,918.413,VALID,0,VALID,91.9294,VALID,-0.101885,VALID,19.9315,VALID,12,VALID,0.00181686,
2005-08-08, 01:13:01,VALID,918.411,VALID,0,VALID,92.0387,VALID,-0.101885,VALID,19.9357,VALID,12,VALID,0,
2005-08-08, 01:14:01,VALID,918.39,VALID,0,VALID,92.8577,VALID,0,VALID,19.9138,VALID,12,VALID,0.0252544,
2005-08-08, 01:15:01,VALID,918.384,VALID,0,VALID,92.9937,VALID,0.0169808,VALID,19.9009,VALID,12,VALID,0.0882813,
2005-08-08, 01:16:01,VALID,918.378,VALID,0,VALID,93.0013,VALID,0,VALID,19.8883,VALID,12,VALID,0.171875,
2005-08-08, 01:17:01,VALID,918.365,VALID,0,VALID,93.0484,VALID,0,VALID,19.8627,VALID,12,VALID,0.078497,
2005-08-08, 01:18:01,VALID,918.354,VALID,0,VALID,93.2404,VALID,0,VALID,19.8202,VALID,12,VALID,0.0090843,
2005-08-08, 01:19:01,VALID,918.335,VALID,0,VALID,93.393,VALID,0,VALID,19.7815,VALID,12,VALID,0,
2005-08-08, 01:20:00,VALID,918.317,VALID,0,VALID,93.6333,VALID,0,VALID,19.7658,VALID,12,VALID,0,
2005-08-08, 01:21:00,VALID,918.295,VALID,0,VALID,93.7338,VALID,0.0339617,VALID,19.7594,VALID,12,VALID,0,
2005-08-08, 01:22:00,VALID,918.278,VALID,0,VALID,93.9283,VALID,0,VALID,19.73,VALID,12,VALID,0,
2005-08-08, 01:23:00,VALID,918.268,VALID,0,VALID,93.9995,VALID,0,VALID,19.7136,VALID,12,VALID,0,
2005-08-08, 01:24:00,VALID,918.251,VALID,0,VALID,93.9652,VALID,0.0679233,VALID,19.7233,VALID,12,VALID,0,
2005-08-08, 01:25:00,VALID,918.235,VALID,0,VALID,93.9716,VALID,0.0169808,VALID,19.7102,VALID,12,VALID,0,
2005-08-08, 01:26:00,VALID,918.233,VALID,0,VALID,93.8253,VALID,0.0509425,VALID,19.7069,VALID,12,VALID,0,
2005-08-08, 01:27:00,VALID,918.224,VALID,0,VALID,93.8203,VALID,0.0169808,VALID,19.691,VALID,12,VALID,0,
2005-08-08, 01:28:00,VALID,918.219,VALID,0,VALID,93.8393,VALID,0.0169808,VALID,19.6848,VALID,12,VALID,0.0119048,
2005-08-08, 01:29:00,VALID,918.217,VALID,0,VALID,93.9436,VALID,0.0509425,VALID,19.6749,VALID,12,VALID,0.078311,
2005-08-08, 01:30:00,VALID,918.21,VALID,0,VALID,94.1153,VALID,0.0679233,VALID,19.6751,VALID,12,VALID,0.00305707,
2005-08-08, 01:31:00,VALID,918.206,VALID,0,VALID,94.3403,VALID,0.0169808,VALID,19.6878,VALID,12,VALID,0.0319767,
2005-08-08, 01:32:00,VALID,918.186,VALID,0,VALID,94.4904,VALID,0.0849042,VALID,19.7002,VALID,11,VALID,0.0932173,
2005-08-08, 01:33:00,VALID,918.181,VALID,0,VALID,94.6074,VALID,0.0339617,VALID,19.6943,VALID,11,VALID,0.00223214,
2005-08-08, 01:34:00,VALID,918.172,VALID,0,VALID,94.5756,VALID,0.0169808,VALID,19.6523,VALID,11,VALID,0.00952744,
2005-08-08, 01:35:00,VALID,918.16,VALID,0,VALID,94.7485,VALID,0,VALID,19.6205,VALID,11,VALID,0.149926,
2005-08-08, 01:36:00,VALID,918.161,VALID,0,VALID,94.9202,VALID,0.0169808,VALID,19.5818,VALID,11,VALID,0.00872093,
2005-08-08, 01:37:00,VALID,918.141,VALID,0,VALID,94.9939,VALID,0.0169808,VALID,19.5557,VALID,11,VALID,0,
2005-08-08, 01:38:00,VALID,918.145,VALID,0,VALID,94.9367,VALID,0,VALID,19.5358,VALID,11,VALID,0.129542,
2005-08-08, 01:39:00,VALID,918.142,VALID,0,VALID,94.999,VALID,0,VALID,19.5299,VALID,11,VALID,0.0212573,
2005-08-08, 01:40:00,VALID,918.13,VALID,0,VALID,95.0702,VALID,0,VALID,19.5296,VALID,11,VALID,0,
2005-08-08, 01:41:00,VALID,918.148,VALID,0,VALID,95.0613,VALID,-0.0169808,VALID,19.5336,VALID,11,VALID,0.034157,
2005-08-08, 01:42:00,VALID,918.158,VALID,0,VALID,95.1465,VALID,0.0169808,VALID,19.5199,VALID,11,VALID,0,
2005-08-08, 01:43:00,VALID,918.167,VALID,0,VALID,95.2546,VALID,-0.0169808,VALID,19.5336,VALID,11,VALID,0,
2005-08-08, 01:44:00,VALID,918.179,VALID,0,VALID,95.439,VALID,0,VALID,19.5236,VALID,7,VALID,0.108974,
2005-08-08, 01:45:00,VALID,918.176,VALID,0,VALID,95.9108,VALID,0.0169808,VALID,19.5395,VALID,236,VALID,0.610764,
2005-08-08, 01:46:00,VALID,918.166,VALID,0,VALID,96.1079,VALID,0.0169808,VALID,19.5624,VALID,236,VALID,0.577363,
2005-08-08, 01:47:00,VALID,918.143,VALID,0,VALID,96.1231,VALID,0.0169808,VALID,19.5982,VALID,237,VALID,0.349805,
2005-08-08, 01:48:00,VALID,918.125,VALID,0,VALID,96.1397,VALID,0,VALID,19.5974,VALID,234,VALID,0.369186,
2005-08-08, 01:49:00,VALID,918.108,VALID,0,VALID,96.1422,VALID,0,VALID,19.6138,VALID,266,VALID,0.576219,
2005-08-08, 01:50:00,VALID,918.105,VALID,0,VALID,95.6666,VALID,0,VALID,19.5972,VALID,329,VALID,0.227965,
2005-08-08, 01:51:00,VALID,918.099,VALID,0,VALID,95.6819,VALID,0,VALID,19.589,VALID,329,VALID,0.193859,
2005-08-08, 01:52:00,VALID,918.103,VALID,0,VALID,95.6895,VALID,0,VALID,19.5492,VALID,335,VALID,0.41183,
2005-08-08, 01:53:00,VALID,918.09,VALID,0,VALID,95.7544,VALID,0,VALID,19.5209,VALID,343,VALID,0.140625,
2005-08-08, 01:54:00,VALID,918.085,VALID,0,VALID,96.0049,VALID,0,VALID,19.4846,VALID,343,VALID,0.419331,
2005-08-08, 01:55:00,VALID,918.099,VALID,0,VALID,96.2338,VALID,0,VALID,19.4784,VALID,343,VALID,0.324306,
2005-08-08, 01:56:00,VALID,918.113,VALID,0,VALID,96.1816,VALID,0,VALID,19.475,VALID,348,VALID,0.487909,
2005-08-08, 01:57:00,VALID,918.113,VALID,0,VALID,96.3062,VALID,0,VALID,19.4499,VALID,353,VALID,0.0660511,
2005-08-08, 01:58:00,VALID,918.097,VALID,0,VALID,96.5173,VALID,0,VALID,19.4332,VALID,353,VALID,0.115141,
2005-08-08, 01:59:00,VALID,918.096,VALID,0,VALID,96.5758,VALID,0.0339617,VALID,19.4332,VALID,353,VALID,0.124238,
2005-08-08, 02:00:00,VALID,918.09,VALID,0,VALID,96.6979,VALID,0.0169808,VALID,19.4397,VALID,353,VALID,0.264509,
2005-08-08, 02:01:00,VALID,918.081,VALID,0,VALID,96.8098,VALID,0,VALID,19.4494,VALID,353,VALID,0.0509673,
2005-08-08, 02:02:00,VALID,918.078,VALID,0,VALID,96.7577,VALID,0.0169808,VALID,19.4784,VALID,341,VALID,0.294085,
2005-08-08, 02:03:00,VALID,918.09,VALID,0,VALID,96.6674,VALID,0,VALID,19.4976,VALID,236,VALID,0.246484,
2005-08-08, 02:04:00,VALID,918.081,VALID,0,VALID,96.5835,VALID,0.0339617,VALID,19.514,VALID,236,VALID,0.00177557,
2005-08-08, 02:05:00,VALID,918.072,VALID,0,VALID,96.4487,VALID,0,VALID,19.5174,VALID,236,VALID,0,
2005-08-08, 02:06:00,VALID,918.058,VALID,0,VALID,96.394,VALID,0.0169808,VALID,19.5072,VALID,236,VALID,0,
2005-08-08, 02:07:00,VALID,918.05,VALID,0,VALID,96.3825,VALID,0.0339617,VALID,19.5105,VALID,236,VALID,0,
2005-08-08, 02:08:00,VALID,918.032,VALID,0,VALID,96.3342,VALID,0,VALID,19.5112,VALID,236,VALID,0,
2005-08-08, 02:09:00,VALID,918.008,VALID,0,VALID,96.3062,VALID,0.0339617,VALID,19.4782,VALID,236,VALID,0.0278533,
2005-08-08, 02:10:00,VALID,917.991,VALID,0,VALID,96.3495,VALID,0.0169808,VALID,19.4759,VALID,236,VALID,0,
2005-08-08, 02:11:00,VALID,917.987,VALID,0,VALID,96.352,VALID,0.0169808,VALID,19.4526,VALID,236,VALID,0,
2005-08-08, 02:12:00,VALID,917.995,VALID,0,VALID,96.3927,VALID,0.0679233,VALID,19.4298,VALID,236,VALID,0,
2005-08-08, 02:13:00,VALID,918,VALID,0,VALID,96.4245,VALID,0,VALID,19.4074,VALID,236,VALID,0.151344,
2005-08-08, 02:14:00,VALID,918.001,VALID,0,VALID,96.5847,VALID,-0.0679233,VALID,19.3669,VALID,236,VALID,0.418155,
2005-08-08, 02:15:00,VALID,917.98,VALID,0,VALID,96.8492,VALID,-0.0679233,VALID,19.3277,VALID,236,VALID,0.501402,
2005-08-08, 02:16:00,VALID,917.956,VALID,0,VALID,97.176,VALID,-0.0679233,VALID,19.3319,VALID,288,VALID,0.480824,
2005-08-08, 02:17:00,VALID,917.935,VALID,0,VALID,97.3502,VALID,-0.0849042,VALID,19.3381,VALID,12,VALID,0.502232,
2005-08-08, 02:18:00,VALID,917.933,VALID,0,VALID,97.354,VALID,-0.101885,VALID,19.3217,VALID,22,VALID,0.764863,
2005-08-08, 02:19:00,VALID,917.915,VALID,0,VALID,97.382,VALID,-0.0849042,VALID,19.3219,VALID,37,VALID,0.603237,
2005-08-08, 02:20:00,VALID,917.912,VALID,0,VALID,97.3769,VALID,-0.101885,VALID,19.3162,VALID,37,VALID,0.515214,
2005-08-08, 02:21:00,VALID,917.897,VALID,0,VALID,97.3808,VALID,-0.0849042,VALID,19.2926,VALID,36,VALID,0.372792,
2005-08-08, 02:22:00,VALID,917.893,VALID,0,VALID,97.4812,VALID,-0.0679233,VALID,19.2968,VALID,32,VALID,0.506747,
2005-08-08, 02:23:00,VALID,917.901,VALID,0,VALID,97.6262,VALID,-0.101885,VALID,19.2996,VALID,352,VALID,0.51036,
2005-08-08, 02:24:00,VALID,917.901,VALID,0,VALID,97.644,VALID,-0.0849042,VALID,19.3575,VALID,345,VALID,0.396984,
2005-08-08, 02:25:00,VALID,917.905,VALID,0,VALID,97.4596,VALID,-0.101885,VALID,19.4029,VALID,353,VALID,0.268821,
2005-08-08, 02:26:00,VALID,917.899,VALID,0,VALID,97.2892,VALID,-0.0509425,VALID,19.425,VALID,353,VALID,0.183321,
2005-08-08, 02:27:00,VALID,917.891,VALID,0,VALID,97.1557,VALID,-0.0679233,VALID,19.4672,VALID,353,VALID,0.0744913,
2005-08-08, 02:28:00,VALID,917.888,VALID,0,VALID,97.0107,VALID,-0.101885,VALID,19.4866,VALID,353,VALID,0,
2005-08-08, 02:29:00,VALID,917.881,VALID,0,VALID,96.8975,VALID,0.0169808,VALID,19.5144,VALID,353,VALID,0.00323933,
2005-08-08, 02:30:00,VALID,917.88,VALID,0,VALID,96.8009,VALID,0,VALID,19.5303,VALID,353,VALID,0.000585938,
2005-08-08, 02:31:00,VALID,917.878,VALID,0,VALID,96.7233,VALID,0,VALID,19.543,VALID,353,VALID,0,
2005-08-08, 02:32:00,VALID,917.875,VALID,0,VALID,96.6699,VALID,0,VALID,19.5631,VALID,353,VALID,0,
2005-08-08, 02:33:00,VALID,917.867,VALID,0,VALID,96.4995,VALID,-0.0169808,VALID,19.5529,VALID,353,VALID,0,
2005-08-08, 02:34:00,VALID,917.85,VALID,0,VALID,96.3355,VALID,0.0169808,VALID,19.5433,VALID,353,VALID,0.193598,
2005-08-08, 02:35:00,VALID,917.852,VALID,0,VALID,96.3775,VALID,0.0169808,VALID,19.5144,VALID,353,VALID,0.148793,
2005-08-08, 02:36:00,VALID,917.832,VALID,0,VALID,96.4016,VALID,0,VALID,19.4819,VALID,353,VALID,0.44779,
2005-08-08, 02:37:00,VALID,917.831,VALID,0,VALID,96.5911,VALID,0.0169808,VALID,19.4494,VALID,353,VALID,0.302557,
2005-08-08, 02:38:00,VALID,917.813,VALID,0,VALID,96.7132,VALID,0.0169808,VALID,19.433,VALID,353,VALID,0.417411,
2005-08-08, 02:39:00,VALID,917.813,VALID,0,VALID,96.8645,VALID,0.0169808,VALID,19.437,VALID,354,VALID,0.336846,
2005-08-08, 02:40:00,VALID,917.805,VALID,0,VALID,96.937,VALID,0,VALID,19.4432,VALID,354,VALID,0.420573,
2005-08-08, 02:41:00,VALID,917.811,VALID,0,VALID,96.8645,VALID,0,VALID,19.4598,VALID,355,VALID,0.426758,
2005-08-08, 02:42:00,VALID,917.814,VALID,0,VALID,96.8111,VALID,0,VALID,19.4695,VALID,357,VALID,0.254464,
2005-08-08, 02:43:00,VALID,917.816,VALID,0,VALID,96.7259,VALID,-0.0169808,VALID,19.4695,VALID,357,VALID,0.47061,
2005-08-08, 02:44:00,VALID,917.823,VALID,0,VALID,96.7958,VALID,-0.0679233,VALID,19.464,VALID,2,VALID,0.710556,
2005-08-08, 02:45:00,VALID,917.81,VALID,0,VALID,96.9293,VALID,-0.101885,VALID,19.4603,VALID,16,VALID,0.978906,
2005-08-08, 02:46:00,VALID,917.829,VALID,0,VALID,97.2104,VALID,-0.0679233,VALID,19.4734,VALID,25,VALID,0.780705,
2005-08-08, 02:47:00,VALID,917.835,VALID,0,VALID,97.2867,VALID,-0.0679233,VALID,19.4926,VALID,25,VALID,0.416266,
2005-08-08, 02:48:00,VALID,917.843,VALID,0,VALID,97.2345,VALID,-0.0679233,VALID,19.5286,VALID,23,VALID,0.487909,
2005-08-08, 02:49:00,VALID,917.839,VALID,0,VALID,97.1697,VALID,-0.0849042,VALID,19.5378,VALID,18,VALID,0.55221,
2005-08-08, 02:50:00,VALID,917.843,VALID,0,VALID,97.0616,VALID,-0.0849042,VALID,19.5701,VALID,18,VALID,0.330983,
2005-08-08, 02:51:00,VALID,917.847,VALID,0,VALID,96.8467,VALID,-0.0679233,VALID,19.5994,VALID,18,VALID,0.128049,
2005-08-08, 02:52:00,VALID,917.848,VALID,0,VALID,96.7322,VALID,-0.0849042,VALID,19.6093,VALID,18,VALID,0.0463542,
2005-08-08, 02:53:00,VALID,917.855,VALID,0,VALID,96.6928,VALID,-0.0679233,VALID,19.6051,VALID,18,VALID,0.0109012,
2005-08-08, 02:54:00,VALID,917.872,VALID,0,VALID,96.5644,VALID,-0.0509425,VALID,19.6376,VALID,18,VALID,0.0939317,
2005-08-08, 02:55:00,VALID,917.877,VALID,0,VALID,96.4118,VALID,-0.0679233,VALID,19.6602,VALID,19,VALID,0.306141,
2005-08-08, 02:56:00,VALID,917.887,VALID,0,VALID,96.118,VALID,-0.0339617,VALID,19.6732,VALID,19,VALID,0.385831,
2005-08-08, 02:57:00,VALID,917.892,VALID,0,VALID,95.8942,VALID,-0.0509425,VALID,19.6928,VALID,19,VALID,0.294922,
2005-08-08, 02:58:00,VALID,917.901,VALID,0,VALID,95.8574,VALID,-0.0509425,VALID,19.7055,VALID,18,VALID,0.201562,
2005-08-08, 02:59:00,VALID,917.901,VALID,0,VALID,95.6743,VALID,0.0679233,VALID,19.7204,VALID,19,VALID,0.298177,
2005-08-08, 03:00:00,VALID,917.908,VALID,0,VALID,95.5687,VALID,0.0169808,VALID,19.7072,VALID,19,VALID,0.369097,
2005-08-08, 03:01:00,VALID,917.903,VALID,0,VALID,95.6132,VALID,0.0679233,VALID,19.7077,VALID,19,VALID,0.195494,
2005-08-08, 03:02:00,VALID,917.896,VALID,0,VALID,95.598,VALID,0.0679233,VALID,19.7238,VALID,19,VALID,0.242188,
2005-08-08, 03:03:00,VALID,917.892,VALID,0,VALID,95.5776,VALID,0.0509425,VALID,19.7171,VALID,18,VALID,0.249479,
2005-08-08, 03:04:00,VALID,917.879,VALID,0,VALID,95.5674,VALID,0.0679233,VALID,19.7164,VALID,18,VALID,0.292361,
2005-08-08, 03:05:00,VALID,917.893,VALID,0,VALID,95.57,VALID,0.0849042,VALID,19.7363,VALID,18,VALID,0.269618,
2005-08-08, 03:06:00,VALID,917.886,VALID,0,VALID,95.6107,VALID,0.0679233,VALID,19.7266,VALID,18,VALID,0.385603,
2005-08-08, 03:07:00,VALID,917.894,VALID,0,VALID,95.659,VALID,0.0849042,VALID,19.7169,VALID,18,VALID,0.458651,
2005-08-08, 03:08:00,VALID,917.888,VALID,0,VALID,95.7467,VALID,0.0679233,VALID,19.701,VALID,18,VALID,0.512091,
2005-08-08, 03:09:00,VALID,917.882,VALID,0,VALID,95.7404,VALID,0.0679233,VALID,19.701,VALID,18,VALID,0.292773,
2005-08-08, 03:10:00,VALID,917.875,VALID,0,VALID,95.7582,VALID,0.0509425,VALID,19.6935,VALID,18,VALID,0.278773,
2005-08-08, 03:11:00,VALID,917.847,VALID,0,VALID,95.7798,VALID,0.0339617,VALID,19.7067,VALID,18,VALID,0.140262,
2005-08-08, 03:12:00,VALID,917.843,VALID,0,VALID,95.7989,VALID,0.0509425,VALID,19.7169,VALID,18,VALID,0.161577,
2005-08-08, 03:13:00,VALID,917.836,VALID,0,VALID,95.762,VALID,0.0339617,VALID,19.7363,VALID,18,VALID,0,
2005-08-08, 03:14:00,VALID,917.833,VALID,0,VALID,95.7175,VALID,0.0509425,VALID,19.7526,VALID,18,VALID,0,
2005-08-08, 03:15:00,VALID,917.835,VALID,0,VALID,95.6488,VALID,0.0339617,VALID,19.768,VALID,18,VALID,0.081577,
2005-08-08, 03:16:00,VALID,917.811,VALID,0,VALID,95.6959,VALID,0.0679233,VALID,19.7815,VALID,18,VALID,0.508398,
2005-08-08, 03:17:00,VALID,917.805,VALID,0,VALID,95.5992,VALID,0.0339617,VALID,19.7844,VALID,18,VALID,0.589236,
2005-08-08, 03:18:00,VALID,917.79,VALID,0,VALID,95.4454,VALID,0.0339617,VALID,19.778,VALID,18,VALID,0.527616,
2005-08-08, 03:19:00,VALID,917.357,VALID,0,VALID,95.4136,VALID,0.0169808,VALID,19.7844,VALID,18,VALID,0.468555,
2005-08-08, 03:20:00,VALID,917.774,VALID,0,VALID,95.4784,VALID,0,VALID,19.7618,VALID,18,VALID,0.486737,
2005-08-08, 03:21:00,VALID,917.768,VALID,0,VALID,95.5293,VALID,0.0339617,VALID,19.7718,VALID,19,VALID,0.708212,
2005-08-08, 03:22:00,VALID,917.779,VALID,0,VALID,95.6132,VALID,0,VALID,19.7556,VALID,19,VALID,0.535429,
2005-08-08, 03:23:00,VALID,917.775,VALID,0,VALID,95.6565,VALID,0.0339617,VALID,19.7459,VALID,19,VALID,0.275174,
2005-08-08, 03:24:00,VALID,917.784,VALID,0,VALID,95.6526,VALID,0,VALID,19.7526,VALID,19,VALID,0.522049,
2005-08-08, 03:25:00,VALID,917.797,VALID,0,VALID,95.7327,VALID,0.0339617,VALID,19.743,VALID,19,VALID,0.356534,
2005-08-08, 03:26:00,VALID,917.785,VALID,0,VALID,95.6997,VALID,0.0509425,VALID,19.7589,VALID,29,VALID,0.213778,
2005-08-08, 03:27:00,VALID,917.782,VALID,0,VALID,95.7226,VALID,0,VALID,19.7591,VALID,64,VALID,0.260417,
2005-08-08, 03:28:00,VALID,917.753,VALID,0,VALID,95.6946,VALID,0.0509425,VALID,19.7626,VALID,64,VALID,0.0586846,
2005-08-08, 03:29:00,VALID,917.719,VALID,0,VALID,95.6768,VALID,-0.0679233,VALID,19.7499,VALID,64,VALID,0.00948661,
2005-08-08, 03:30:00,VALID,917.687,VALID,0,VALID,95.7073,VALID,-0.0849042,VALID,19.7698,VALID,63,VALID,0.417783,
2005-08-08, 03:31:00,VALID,917.647,VALID,0,VALID,95.5585,VALID,-0.0509425,VALID,19.8023,VALID,43,VALID,0.990385,
2005-08-08, 03:32:00,VALID,917.598,VALID,0,VALID,95.3157,VALID,-0.0509425,VALID,19.815,VALID,38,VALID,1.19727,
2005-08-08, 03:33:00,VALID,917.574,VALID,0,VALID,95.1249,VALID,-0.0339617,VALID,19.8532,VALID,34,VALID,1.23663,